Date,TemperatureHighF,TemperatureAvgF,TemperatureLowF,DewpointHighF,DewpointAvgF,DewpointLowF,HumidityHigh,HumidityAvg,HumidityLow,PressureMaxIn,PressureMinIn,WindSpeedMaxMPH,WindSpeedAvgMPH,GustSpeedMaxMPH,PrecipitationSumIn
2013-2-1,34.0,30.3,23.3,17.0,11.5,6.0,55,46,32,30.14,29.68,12,5,22,0.00
2013-2-2,31.8,26.0,16.0,22.0,13.5,9.0,81,60,44,30.28,30.05,10,2,16,0.00
2013-2-3,34.0,27.7,21.9,21.0,18.8,17.0,87,70,52,30.06,29.74,7,2,10,0.00
2013-2-4,32.7,27.2,19.6,17.0,12.0,7.0,84,55,37,29.96,29.76,16,3,21,0.00
2013-2-5,28.9,27.2,23.8,24.0,20.2,12.0,85,75,58,30.01,29.91,5,2,10,0.00
2013-2-6,41.0,33.4,28.2,29.0,21.2,3.0,86,64,31,30.32,29.91,8,3,14,0.00
2013-2-7,33.5,28.4,19.9,18.0,10.4,2.0,68,48,32,30.52,30.31,8,2,13,0.00
2013-2-8,35.1,32.6,26.6,33.0,28.5,15.0,95,85,57,30.42,29.49,13,3,21,0.38
2013-2-9,28.0,24.7,20.3,23.0,16.9,5.0,91,74,46,30.23,29.54,0,0,0,0.12
2013-2-10,37.7,23.3,7.9,23.0,11.7,3.0,85,64,30,30.43,30.24,4,0,6,0.00
2013-2-11,48.3,35.3,17.5,46.0,32.7,14.0,94,90,82,30.36,29.64,6,1,12,0.67
2013-2-12,47.3,40.4,31.3,41.0,31.8,27.0,94,73,51,29.92,29.65,13,2,15,0.00
2013-2-13,42.4,34.9,25.5,29.0,26.6,23.0,89,73,52,29.91,29.66,7,1,15,0.00
2013-2-14,43.7,35.2,26.8,32.0,27.4,24.0,91,75,47,30.01,29.70,8,1,15,0.08
2013-2-15,49.3,37.5,27.7,41.0,32.9,25.0,93,84,67,30.03,29.93,15,2,17,0.00
2013-2-16,39.0,36.7,33.1,36.0,31.3,26.0,92,81,63,29.93,29.68,14,4,16,0.00
2013-2-17,32.7,26.2,19.5,26.0,10.9,2.0,85,55,34,29.79,29.47,23,8,31,0.00
2013-2-18,34.3,24.8,18.2,15.0,6.2,2.0,70,47,26,30.20,29.80,16,4,30,0.00
2013-2-19,49.4,37.0,19.5,45.0,31.0,14.0,93,79,63,30.21,29.61,9,2,17,0.42
2013-2-20,42.8,34.7,26.9,40.0,20.1,10.0,90,57,40,29.87,29.60,16,4,24,0.00
2013-2-21,34.9,28.8,24.6,17.0,14.9,13.0,66,57,47,30.23,29.85,18,5,34,0.00
2013-2-22,41.4,33.8,26.1,28.0,23.4,17.0,76,66,52,30.38,30.23,6,2,15,0.00
2013-2-23,40.8,37.8,34.5,36.0,33.1,28.0,92,83,75,30.32,29.81,8,2,13,0.13
2013-2-24,41.3,38.6,35.0,38.0,36.0,32.0,92,90,85,29.89,29.66,13,4,16,0.19
2013-2-25,43.2,37.4,30.8,32.0,30.7,28.0,90,78,63,30.24,29.89,8,2,11,0.00
2013-2-26,42.6,37.7,31.5,35.0,31.6,29.0,91,79,63,30.32,30.06,7,1,11,0.03
2013-2-27,46.5,43.9,38.1,44.0,41.6,35.0,93,91,87,30.05,29.55,15,4,32,1.25
2013-2-28,48.0,41.8,37.3,42.0,38.9,35.0,93,89,77,29.63,29.52,5,0,8,0.02